Weather History for KMWM - July, 2013

Change the Weather History Date:

Thursday, July 4, 2013

  Actual Average Record
Temperature  
Mean Temperature 76 °F -  
Max Temperature 87 °F 84 °F 102 °F (1990)
Min Temperature 64 °F 60 °F 42 °F (1967)
Cooling Degree Days 10    
Growing Degree Days 26 (Base 50)    
Moisture  
Dew Point 54 °F    
Average Humidity 50    
Maximum Humidity 77    
Minimum Humidity 25    
Precipitation  
Precipitation 0.00 in - - ()
Sea Level Pressure  
Sea Level Pressure 29.93 in    
Wind  
Wind Speed 8 mph (South)    
Max Wind Speed 18 mph    
Max Gust Speed 25 mph    
Visibility 10 miles    
Events      
Averages and records for this station are not official NWS values.
T = Trace of Precipitation, MM = Missing Value Source: NWS Daily Summary

Daily Weather History Graph

Daily Weather History Graph

Search for Another Location

Airport or City:

Trip Planner

Search our weather history database for the weather conditions in past years. The results will help you decide how hot, cold, wet, or windy it might be!

Date:

Astronomy

Jul. 04, 2013 Rise Set
Actual Time 5:43 AM CDT 9:05 PM CDT
Civil Twilight 5:07 AM CDT 9:41 PM CDT
Nautical Twilight 4:21 AM CDT 10:28 PM CDT
Astronomical Twilight 3:22 AM CDT 11:26 PM CDT
Moon 3:03 AM CDT (7/4) 6:08 PM CDT (7/4)
Length of Visible Light 16h 33m
Length of Day
15h 22m
Waning Crescent, 11% of the Moon is Illuminated
Jul 4
Waning Crescent
Jul 8
New
Jul 15
First Quarter
Jul 22
Full
Jul 29
Last Quarter

Hourly Weather History & Observations

Time (CDT) Temp. Heat Index Dew Point Humidity Pressure Visibility Wind Dir Wind Speed Gust Speed Precip Events Conditions
12:13 AM 68.0 °F - 53.6 °F 60% 29.97 in 10.0 mi SSE 3.5 mph - N/A   Clear
12:32 AM 66.2 °F - 53.6 °F 64% 29.97 in 10.0 mi SE 3.5 mph - N/A   Clear
12:53 AM 68.0 °F - 53.6 °F 60% 29.97 in 10.0 mi SE 6.9 mph - N/A   Clear
1:13 AM 68.0 °F - 55.4 °F 64% 29.97 in 10.0 mi South 6.9 mph - N/A   Clear
1:32 AM 68.0 °F - 55.4 °F 64% 29.97 in 10.0 mi South 6.9 mph - N/A   Clear
1:53 AM 66.2 °F - 57.2 °F 73% 29.96 in 10.0 mi South 4.6 mph - N/A   Scattered Clouds
2:13 AM 66.2 °F - 57.2 °F 73% 29.96 in 10.0 mi South 5.8 mph - N/A   Scattered Clouds
2:32 AM 66.2 °F - 57.2 °F 73% 29.96 in 10.0 mi South 8.1 mph - N/A   Clear
2:53 AM 66.2 °F - 57.2 °F 73% 29.96 in 10.0 mi South 5.8 mph - N/A   Clear
3:13 AM 66.2 °F - 57.2 °F 73% 29.96 in 10.0 mi South 5.8 mph - N/A   Scattered Clouds
3:32 AM 66.2 °F - 57.2 °F 73% 29.96 in 10.0 mi South 6.9 mph - N/A   Scattered Clouds
3:53 AM 66.2 °F - 57.2 °F 73% 29.96 in 10.0 mi South 6.9 mph - N/A   Clear
4:12 AM 66.2 °F - 57.2 °F 73% 29.96 in 10.0 mi South 6.9 mph - N/A   Clear
4:32 AM 66.2 °F - 57.2 °F 73% 29.96 in 10.0 mi South 5.8 mph - N/A   Clear
4:52 AM 64.4 °F - 57.2 °F 77% 29.97 in 10.0 mi South 4.6 mph - N/A   Clear
5:12 AM 64.4 °F - 57.2 °F 77% 29.97 in 10.0 mi South 6.9 mph - N/A   Clear
5:33 AM 64.4 °F - 57.2 °F 77% 29.97 in 10.0 mi South 6.9 mph - N/A   Clear
5:52 AM 64.4 °F - 57.2 °F 77% 29.97 in 10.0 mi South 8.1 mph - N/A   Clear
6:12 AM 64.4 °F - 57.2 °F 77% 29.97 in 10.0 mi South 5.8 mph - N/A   Clear
6:33 AM 64.4 °F - 57.2 °F 77% 29.97 in 10.0 mi South 5.8 mph - N/A   Clear
6:52 AM 64.4 °F - 57.2 °F 77% 29.97 in 10.0 mi South 8.1 mph - N/A   Clear
7:12 AM 66.2 °F - 57.2 °F 73% 29.97 in 10.0 mi South 8.1 mph - N/A   Clear
7:33 AM 66.2 °F - 57.2 °F 73% 29.97 in 10.0 mi South 6.9 mph - N/A   Clear
7:52 AM 69.8 °F - 57.2 °F 64% 29.97 in 10.0 mi South 5.8 mph - N/A   Clear
8:12 AM 71.6 °F - 57.2 °F 60% 29.97 in 10.0 mi South 6.9 mph - N/A   Clear
8:33 AM 73.4 °F - 57.2 °F 57% 29.96 in 10.0 mi South 6.9 mph - N/A   Clear
8:52 AM 73.4 °F - 57.2 °F 57% 29.96 in 10.0 mi South 9.2 mph - N/A   Clear
9:12 AM 75.2 °F - 57.2 °F 53% 29.97 in 10.0 mi SSW 9.2 mph - N/A   Clear
9:33 AM 75.2 °F - 57.2 °F 53% 29.96 in 10.0 mi South 6.9 mph - N/A   Clear
9:53 AM 77.0 °F - 57.2 °F 50% 29.96 in 10.0 mi South 11.5 mph - N/A   Clear
10:12 AM 78.8 °F - 57.2 °F 47% 29.95 in 10.0 mi South 9.2 mph - N/A   Clear
10:33 AM 78.8 °F - 55.4 °F 44% 29.95 in 10.0 mi South 9.2 mph - N/A   Clear
10:53 AM 80.6 °F 80.5 °F 55.4 °F 42% 29.95 in 10.0 mi South 5.8 mph - N/A   Clear
11:12 AM 82.4 °F 81.7 °F 55.4 °F 39% 29.94 in 10.0 mi South 4.6 mph - N/A   Clear
11:33 AM 82.4 °F 81.4 °F 53.6 °F 37% 29.94 in 10.0 mi South 10.4 mph - N/A   Clear
11:53 AM 84.2 °F 82.8 °F 53.6 °F 35% 29.94 in 10.0 mi South 6.9 mph - N/A   Clear
12:12 PM 84.2 °F 82.8 °F 53.6 °F 35% 29.94 in 10.0 mi South 6.9 mph - N/A   Clear
12:33 PM 84.2 °F - 48.2 °F 29% 29.93 in 10.0 mi SSW 11.5 mph 18.4 mph N/A   Clear
12:53 PM 86.0 °F - 51.8 °F 31% 29.92 in 10.0 mi South 10.4 mph 23.0 mph N/A   Clear
1:12 PM 86.0 °F - 51.8 °F 31% 29.92 in 10.0 mi South 12.7 mph 18.4 mph N/A   Clear
1:33 PM 86.0 °F 84.2 °F 53.6 °F 33% 29.92 in 10.0 mi South 12.7 mph 19.6 mph N/A   Clear
1:53 PM 87.8 °F - 51.8 °F 29% 29.91 in 10.0 mi South 9.2 mph 19.6 mph N/A   Clear
2:12 PM 86.0 °F - 50.0 °F 29% 29.91 in 10.0 mi South 13.8 mph 20.7 mph N/A   Clear
2:33 PM 87.8 °F - 51.8 °F 29% 29.90 in 10.0 mi SSW 13.8 mph 23.0 mph N/A   Clear
2:53 PM 87.8 °F - 50.0 °F 27% 29.90 in 10.0 mi SSE 17.3 mph 24.2 mph N/A   Clear
3:12 PM 87.8 °F - 51.8 °F 29% 29.90 in 10.0 mi South 12.7 mph 19.6 mph N/A   Clear
3:33 PM 87.8 °F - 48.2 °F 25% 29.90 in 10.0 mi South 15.0 mph 24.2 mph N/A   Clear
3:53 PM 87.8 °F - 50.0 °F 27% 29.90 in 10.0 mi South 15.0 mph 23.0 mph N/A   Clear
4:12 PM 87.8 °F - 48.2 °F 25% 29.90 in 10.0 mi SSW 18.4 mph 23.0 mph N/A   Clear
4:33 PM 87.8 °F - 50.0 °F 27% 29.89 in 10.0 mi South 11.5 mph 24.2 mph N/A   Clear
4:52 PM 87.8 °F - 48.2 °F 25% 29.89 in 10.0 mi South 16.1 mph 23.0 mph N/A   Clear
5:12 PM 86.0 °F - 50.0 °F 29% 29.89 in 10.0 mi South 16.1 mph 23.0 mph N/A   Clear
5:33 PM 86.0 °F - 50.0 °F 29% 29.88 in 10.0 mi South 16.1 mph 25.3 mph N/A   Clear
5:52 PM 86.0 °F - 51.8 °F 31% 29.88 in 10.0 mi South 16.1 mph 24.2 mph N/A   Clear
6:12 PM 84.2 °F 82.8 °F 53.6 °F 35% 29.88 in 10.0 mi South 17.3 mph 21.9 mph N/A   Clear
6:33 PM 84.2 °F 82.8 °F 53.6 °F 35% 29.88 in 10.0 mi South 12.7 mph 23.0 mph N/A   Clear
6:52 PM 84.2 °F 82.8 °F 53.6 °F 35% 29.88 in 10.0 mi South 12.7 mph 23.0 mph N/A   Clear
7:12 PM 84.2 °F 82.8 °F 53.6 °F 35% 29.88 in 10.0 mi South 11.5 mph 16.1 mph N/A   Clear
7:33 PM 82.4 °F - 51.8 °F 35% 29.88 in 10.0 mi South 10.4 mph 20.7 mph N/A   Clear
7:52 PM 82.4 °F - 51.8 °F 35% 29.88 in 10.0 mi South 12.7 mph 18.4 mph N/A   Clear
8:12 PM 82.4 °F - 51.8 °F 35% 29.88 in 10.0 mi South 9.2 mph 16.1 mph N/A   Clear
8:33 PM 80.6 °F 80.3 °F 53.6 °F 39% 29.88 in 10.0 mi South 6.9 mph - N/A   Clear
8:52 PM 78.8 °F - 53.6 °F 42% 29.88 in 10.0 mi South 8.1 mph - N/A   Clear
9:12 PM 78.8 °F - 53.6 °F 42% 29.88 in 10.0 mi South 8.1 mph - N/A   Clear
9:32 PM 78.8 °F - 53.6 °F 42% 29.88 in 10.0 mi South 10.4 mph - N/A   Clear
9:52 PM 77.0 °F - 53.6 °F 44% 29.89 in 10.0 mi South 8.1 mph - N/A   Clear
10:13 PM 75.2 °F - 55.4 °F 50% 29.90 in 10.0 mi SSE 4.6 mph - N/A   Clear
10:32 PM 75.2 °F - 55.4 °F 50% 29.90 in 10.0 mi South 6.9 mph - N/A   Clear
10:52 PM 75.2 °F - 55.4 °F 50% 29.90 in 10.0 mi SSE 8.1 mph - N/A   Clear
11:13 PM 75.2 °F - 55.4 °F 50% 29.90 in 10.0 mi SSE 10.4 mph - N/A   Clear
11:32 PM 75.2 °F - 55.4 °F 50% 29.90 in 10.0 mi SSE 9.2 mph 16.1 mph N/A   Clear
11:52 PM 75.2 °F - 55.4 °F 50% 29.90 in 10.0 mi South 11.5 mph 16.1 mph N/A   Clear